Weather History for Andalusia, AL

Change the Weather History Date:

Monday, November 5, 2012

  Actual Average (KCEW) Record (KCEW)
Temperature  
Mean Temperature 60 °F -  
Max Temperature 73 °F 71 °F 87 °F (1975)
Min Temperature 48 °F 47 °F 26 °F (1991)
Degree Days  
Heating Degree Days 4    
Growing Degree Days 10 (Base 50)    
Moisture  
Dew Point 43 °F    
Average Humidity 61    
Maximum Humidity 87    
Minimum Humidity 22    
Precipitation  
Precipitation 0.06 in - - ()
Sea Level Pressure  
Sea Level Pressure 30.01 in    
Wind  
Wind Speed 4 mph (NE)    
Max Wind Speed 9 mph    
Max Gust Speed -    
Visibility 9 miles    
Events Rain    
Averages and records for this station are not official NWS values.
T = Trace of Precipitation, MM = Missing Value Source: NWS Daily Summary

Daily Weather History Graph

Daily Weather History Graph

Search for Another Location

Airport:

Trip Planner

Search our weather history database for the weather conditions in past years. The results will help you decide how hot, cold, wet, or windy it might be!

Date:

Astronomy

Nov. 05, 2012 Rise Set
Actual Time 6:04 AM CST 4:53 PM CST
Civil Twilight 5:39 AM CST 5:18 PM CST
Nautical Twilight 5:10 AM CST 5:47 PM CST
Astronomical Twilight 4:42 AM CST 6:15 PM CST
Moon 10:29 PM CST (11/5) 11:23 AM CST (11/5)
Length of Visible Light 11h 38m
Length of Day
10h 48m
Waning Gibbous, 62% of the Moon is Illuminated
Nov 5
Waning Gibbous
Nov 6
Last Quarter
Nov 13
New
Nov 20
First Quarter
Nov 28
Full

Hourly Weather History & Observations

Time (CST) Temp. Dew Point Humidity Pressure Visibility Wind Dir Wind Speed Gust Speed Precip Events Conditions
12:56 AM 57.0 °F 50.0 °F 77% 30.04 in 9.0 mi NNE 5.8 mph - N/A   Clear
1:56 AM 55.0 °F 48.0 °F 77% 30.05 in 9.0 mi Calm Calm - N/A   Clear
2:56 AM 53.1 °F 48.0 °F 83% 30.04 in 6.0 mi Calm Calm - N/A   Haze
3:56 AM 51.1 °F 46.0 °F 83% 30.04 in 6.0 mi Calm Calm - N/A   Haze
4:56 AM 48.9 °F 44.1 °F 83% 30.05 in 6.0 mi NE 3.5 mph - N/A   Haze
5:56 AM 48.0 °F 41.0 °F 77% 30.07 in 10.0 mi ENE 3.5 mph - N/A   Clear
6:56 AM 50.0 °F 42.1 °F 74% 30.09 in 10.0 mi Calm Calm - N/A   Clear
7:56 AM 55.0 °F 42.1 °F 62% 30.08 in 10.0 mi ENE 6.9 mph - N/A   Clear
8:56 AM 60.1 °F 37.0 °F 42% 30.08 in 10.0 mi ENE 6.9 mph - N/A   Clear
9:56 AM 66.0 °F 35.1 °F 32% 30.07 in 10.0 mi Variable 3.5 mph - N/A   Clear
10:56 AM 69.1 °F 30.0 °F 23% 30.04 in 10.0 mi ESE 9.2 mph - N/A   Clear
11:56 AM 71.1 °F 32.0 °F 24% 30.01 in 10.0 mi ESE 8.1 mph - N/A   Clear
12:56 PM 73.0 °F 32.0 °F 22% 29.98 in 10.0 mi Variable 3.5 mph - N/A   Clear
1:56 PM 73.0 °F 34.0 °F 24% 29.96 in 10.0 mi Calm Calm - N/A   Clear
2:56 PM 72.0 °F 34.0 °F 25% 29.96 in 10.0 mi Calm Calm - N/A   Mostly Cloudy
3:56 PM 71.1 °F 36.0 °F 28% 29.97 in 10.0 mi WNW 3.5 mph - N/A   Overcast
4:56 PM 64.9 °F 42.1 °F 43% 29.99 in 9.0 mi NNW 8.1 mph - 0.00 in Rain Light Rain
5:56 PM 57.0 °F 53.1 °F 87% 29.97 in 9.0 mi East 3.5 mph - 0.04 in Rain Light Rain
6:56 PM 57.0 °F 52.0 °F 83% 29.94 in 10.0 mi Calm Calm - 0.00 in   Overcast
7:56 PM 57.0 °F 52.0 °F 83% 29.95 in 10.0 mi ESE 3.5 mph - 0.01 in Rain Light Rain
8:56 PM 57.0 °F 52.0 °F 83% 29.94 in 10.0 mi Calm Calm - 0.00 in   Overcast
9:56 PM 57.0 °F 50.0 °F 77% 29.93 in 10.0 mi WNW 4.6 mph - N/A   Overcast
10:56 PM 57.0 °F 51.1 °F 81% 29.94 in 7.0 mi NNW 6.9 mph - 0.00 in Rain Light Rain
11:56 PM 55.9 °F 51.1 °F 84% 29.94 in 8.0 mi NNE 6.9 mph - 0.01 in Rain Light Rain